Time,TemperatureF,DewpointF,PressureIn,WindDirection,WindDirectionDegrees,WindSpeedMPH,WindSpeedGustMPH,Humidity,HourlyPrecipIn,Conditions,Clouds,dailyrainin,SoftwareType,DateUTC
2013-01-30 00:04:00,57.0,54.0,-100.00,NNE,20,0.0,1.0,88,-99.99,,,-99.99,,2013-01-30 05:04:00,
2013-01-30 00:12:00,57.0,54.0,-100.00,NNE,20,0.0,1.0,88,-99.99,,,-99.99,,2013-01-30 05:12:00,
2013-01-30 00:22:00,57.0,53.0,-100.00,NNE,25,0.0,1.0,88,-99.99,,,-99.99,,2013-01-30 05:22:00,
2013-01-30 00:32:00,57.0,53.0,-100.00,NNE,25,0.0,1.0,88,-99.99,,,-99.99,,2013-01-30 05:32:00,
2013-01-30 00:43:00,57.0,53.0,-100.00,NNE,30,0.0,0.0,88,-99.99,,,-99.99,,2013-01-30 05:43:00,
2013-01-30 00:52:00,57.0,53.0,-100.00,NNE,30,0.0,2.0,88,-99.99,,,-99.99,,2013-01-30 05:52:00,
2013-01-30 01:02:00,57.0,53.0,-100.00,NNE,30,1.0,1.0,88,-99.99,,,-99.99,,2013-01-30 06:02:00,
2013-01-30 01:12:00,57.0,53.0,-100.00,NNE,30,0.0,1.0,89,-99.99,,,-99.99,,2013-01-30 06:12:00,
2013-01-30 01:22:00,57.0,53.0,-100.00,NE,35,0.0,1.0,89,-99.99,,,-99.99,,2013-01-30 06:22:00,
2013-01-30 01:32:00,56.0,53.0,-100.00,NE,35,0.0,1.0,89,-99.99,,,-99.99,,2013-01-30 06:32:00,
2013-01-30 01:42:00,56.0,53.0,-100.00,NE,35,0.0,1.0,89,-99.99,,,-99.99,,2013-01-30 06:42:00,
2013-01-30 01:52:00,57.0,53.0,-100.00,NE,40,0.0,0.0,89,-99.99,,,-99.99,,2013-01-30 06:52:00,
2013-01-30 02:02:00,56.0,53.0,-100.00,NE,40,0.0,0.0,89,-99.99,,,-99.99,,2013-01-30 07:02:00,
2013-01-30 02:11:00,56.0,53.0,-100.00,NE,40,1.0,1.0,89,-99.99,,,-99.99,,2013-01-30 07:11:00,
2013-01-30 02:22:00,56.0,53.0,-100.00,NE,40,1.0,1.0,89,-99.99,,,-99.99,,2013-01-30 07:22:00,
2013-01-30 02:32:00,56.0,53.0,-100.00,NE,40,0.0,0.0,89,-99.99,,,-99.99,,2013-01-30 07:32:00,
2013-01-30 02:42:00,56.0,53.0,-100.00,NE,40,0.0,0.0,89,-99.99,,,-99.99,,2013-01-30 07:42:00,
2013-01-30 02:52:00,56.0,53.0,-100.00,NE,45,0.0,0.0,89,-99.99,,,-99.99,,2013-01-30 07:52:00,
2013-01-30 03:02:00,56.0,53.0,-100.00,NE,45,0.0,1.0,89,-99.99,,,-99.99,,2013-01-30 08:02:00,
2013-01-30 03:11:00,56.0,53.0,-100.00,NE,45,0.0,1.0,89,-99.99,,,-99.99,,2013-01-30 08:11:00,
2013-01-30 03:22:00,56.0,53.0,-100.00,NE,45,0.0,1.0,89,-99.99,,,-99.99,,2013-01-30 08:22:00,
2013-01-30 03:32:00,56.0,53.0,-100.00,NE,45,0.0,1.0,89,-99.99,,,-99.99,,2013-01-30 08:32:00,
2013-01-30 03:42:00,56.0,53.0,-100.00,NE,45,0.0,1.0,89,-99.99,,,-99.99,,2013-01-30 08:42:00,
2013-01-30 03:52:00,56.0,53.0,-100.00,NE,50,0.0,0.0,89,-99.99,,,-99.99,,2013-01-30 08:52:00,
2013-01-30 04:02:00,56.0,53.0,-100.00,NE,50,1.0,1.0,89,-99.99,,,-99.99,,2013-01-30 09:02:00,
2013-01-30 04:11:00,56.0,53.0,-100.00,NE,50,0.0,1.0,89,-99.99,,,-99.99,,2013-01-30 09:11:00,
2013-01-30 04:22:00,56.0,53.0,-100.00,NE,50,1.0,2.0,89,-99.99,,,-99.99,,2013-01-30 09:22:00,
2013-01-30 04:32:00,56.0,53.0,-100.00,NE,50,0.0,1.0,89,-99.99,,,-99.99,,2013-01-30 09:32:00,
2013-01-30 04:42:00,56.0,53.0,-100.00,NE,55,0.0,1.0,89,-99.99,,,-99.99,,2013-01-30 09:42:00,
2013-01-30 04:51:00,57.0,53.0,-100.00,NE,55,1.0,4.0,89,-99.99,,,-99.99,,2013-01-30 09:51:00,
2013-01-30 05:02:00,58.0,55.0,-100.00,NE,55,3.0,8.0,89,-99.99,,,-99.99,,2013-01-30 10:02:00,
2013-01-30 05:12:00,60.0,56.0,-100.00,ENE,60,3.0,9.0,89,-99.99,,,-99.99,,2013-01-30 10:12:00,
2013-01-30 05:21:00,60.0,57.0,-100.00,ENE,60,4.0,9.0,89,-99.99,,,-99.99,,2013-01-30 10:21:00,
2013-01-30 05:32:00,61.0,57.0,-100.00,ENE,65,5.0,9.0,88,-99.99,,,-99.99,,2013-01-30 10:32:00,
2013-01-30 05:42:00,61.0,58.0,-100.00,ENE,65,4.0,10.0,88,-99.99,,,-99.99,,2013-01-30 10:42:00,
2013-01-30 05:52:00,61.0,58.0,-100.00,ENE,65,4.0,10.0,88,-99.99,,,-99.99,,2013-01-30 10:52:00,
2013-01-30 06:02:00,62.0,57.0,-100.00,ENE,65,6.0,11.0,85,-99.99,,,-99.99,,2013-01-30 11:02:00,
2013-01-30 06:11:00,62.0,57.0,-100.00,ENE,65,5.0,13.0,83,-99.99,,,-99.99,,2013-01-30 11:11:00,
2013-01-30 06:22:00,62.0,56.0,-100.00,ENE,65,6.0,13.0,81,-99.99,,,-99.99,,2013-01-30 11:22:00,
2013-01-30 06:33:00,62.0,56.0,-100.00,ENE,60,6.0,14.0,81,-99.99,,,-99.99,,2013-01-30 11:33:00,
2013-01-30 06:42:00,62.0,56.0,-100.00,NE,55,4.0,18.0,80,-99.99,,,-99.99,,2013-01-30 11:42:00,
2013-01-30 06:52:00,62.0,56.0,-100.00,NE,55,5.0,13.0,80,-99.99,,,-99.99,,2013-01-30 11:52:00,
2013-01-30 07:02:00,62.0,55.0,-100.00,NE,50,6.0,16.0,78,-99.99,,,-99.99,,2013-01-30 12:02:00,
2013-01-30 07:12:00,62.0,55.0,-100.00,NE,50,6.0,16.0,78,-99.99,,,-99.99,,2013-01-30 12:12:00,
2013-01-30 07:22:00,62.0,55.0,-100.00,NE,45,6.0,14.0,78,-99.99,,,-99.99,,2013-01-30 12:22:00,
2013-01-30 07:33:00,63.0,56.0,-100.00,NE,35,6.0,21.0,77,-99.99,,,-99.99,,2013-01-30 12:33:00,
2013-01-30 07:43:00,63.0,55.0,-100.00,NE,35,8.0,14.0,76,-99.99,,,-99.99,,2013-01-30 12:43:00,
2013-01-30 08:03:00,63.0,55.0,-100.00,NNE,25,7.0,14.0,75,-99.99,,,-99.99,,2013-01-30 13:03:00,
2013-01-30 08:12:00,63.0,55.0,-100.00,NNE,20,9.0,15.0,75,-99.99,,,-99.99,,2013-01-30 13:12:00,
2013-01-30 08:23:00,63.0,55.0,-100.00,NNE,25,9.0,23.0,75,-99.99,,,-99.99,,2013-01-30 13:23:00,
2013-01-30 08:33:00,63.0,55.0,-100.00,NNE,20,11.0,18.0,75,-99.99,,,-99.99,,2013-01-30 13:33:00,
2013-01-30 08:43:00,64.0,56.0,-100.00,NNE,15,11.0,22.0,75,-99.99,,,-99.99,,2013-01-30 13:43:00,
2013-01-30 08:52:00,63.0,55.0,-100.00,NNE,15,6.0,16.0,75,-99.99,,,-99.99,,2013-01-30 13:52:00,
2013-01-30 09:03:00,64.0,56.0,-100.00,NNE,20,11.0,21.0,75,-99.99,,,-99.99,,2013-01-30 14:03:00,
2013-01-30 09:12:00,64.0,56.0,-100.00,NNE,20,11.0,32.0,74,-99.99,,,-99.99,,2013-01-30 14:12:00,
2013-01-30 09:23:00,64.0,55.0,-100.00,NNE,20,7.0,17.0,73,-99.99,,,-99.99,,2013-01-30 14:23:00,
2013-01-30 09:33:00,64.0,56.0,-100.00,NNE,20,9.0,24.0,73,-99.99,,,-99.99,,2013-01-30 14:33:00,
2013-01-30 09:42:00,65.0,55.0,-100.00,NNE,20,5.0,26.0,71,-99.99,,,-99.99,,2013-01-30 14:42:00,
2013-01-30 09:52:00,65.0,55.0,-100.00,NNE,20,5.0,26.0,71,-99.99,,,-99.99,,2013-01-30 14:52:00,
2013-01-30 10:03:00,65.0,55.0,-100.00,NNE,20,5.0,14.0,71,-99.99,,,-99.99,,2013-01-30 15:03:00,
2013-01-30 10:12:00,65.0,55.0,-100.00,NNE,20,11.0,23.0,70,-99.99,,,-99.99,,2013-01-30 15:12:00,
2013-01-30 10:23:00,65.0,55.0,-100.00,NNE,15,6.0,31.0,69,-99.99,,,-99.99,,2013-01-30 15:23:00,
2013-01-30 10:33:00,65.0,55.0,-100.00,NNE,20,13.0,32.0,69,-99.99,,,-99.99,,2013-01-30 15:33:00,
2013-01-30 10:43:00,65.0,55.0,-100.00,NNE,20,9.0,24.0,69,-99.99,,,-99.99,,2013-01-30 15:43:00,
2013-01-30 10:53:00,65.0,55.0,-100.00,NNE,20,11.0,20.0,69,-99.99,,,-99.99,,2013-01-30 15:53:00,
2013-01-30 11:03:00,66.0,54.0,-100.00,NNE,20,11.0,28.0,67,-99.99,,,-99.99,,2013-01-30 16:03:00,
2013-01-30 11:12:00,66.0,54.0,-100.00,NNE,20,6.0,18.0,66,-99.99,,,-99.99,,2013-01-30 16:12:00,
2013-01-30 11:23:00,66.0,54.0,-100.00,NNE,20,8.0,29.0,65,-99.99,,,-99.99,,2013-01-30 16:23:00,
2013-01-30 11:32:00,67.0,54.0,-100.00,NNE,20,10.0,23.0,63,-99.99,,,-99.99,,2013-01-30 16:32:00,
2013-01-30 11:42:00,67.0,53.0,-100.00,NNE,15,11.0,24.0,62,-99.99,,,-99.99,,2013-01-30 16:42:00,
2013-01-30 11:52:00,67.0,53.0,-100.00,NNE,20,8.0,26.0,62,-99.99,,,-99.99,,2013-01-30 16:52:00,
2013-01-30 12:03:00,67.0,54.0,-100.00,NNE,20,12.0,26.0,63,-99.99,,,-99.99,,2013-01-30 17:03:00,
2013-01-30 12:13:00,66.0,54.0,-100.00,NNE,20,12.0,30.0,65,-99.99,,,-99.99,,2013-01-30 17:13:00,
2013-01-30 12:23:00,66.0,54.0,-100.00,NNE,20,7.0,26.0,67,-99.99,,,-99.99,,2013-01-30 17:23:00,
2013-01-30 12:33:00,66.0,54.0,-100.00,NNE,20,12.0,26.0,66,-99.99,,,-99.99,,2013-01-30 17:33:00,
2013-01-30 12:43:00,67.0,54.0,-100.00,NNE,20,9.0,19.0,64,-99.99,,,-99.99,,2013-01-30 17:43:00,
2013-01-30 12:53:00,67.0,54.0,-100.00,NNE,20,11.0,25.0,64,-99.99,,,-99.99,,2013-01-30 17:53:00,
2013-01-30 13:03:00,67.0,54.0,-100.00,NNE,15,9.0,22.0,63,-99.99,,,-99.99,,2013-01-30 18:03:00,
2013-01-30 13:13:00,66.0,55.0,-100.00,North,10,9.0,21.0,68,-99.99,,,-99.99,,2013-01-30 18:13:00,
2013-01-30 13:23:00,65.0,57.0,-100.00,NNE,15,6.0,22.0,74,-99.99,,,-99.99,,2013-01-30 18:23:00,
2013-01-30 13:33:00,65.0,57.0,-100.00,NNE,15,8.0,22.0,75,-99.99,,,-99.99,,2013-01-30 18:33:00,
2013-01-30 13:43:00,65.0,57.0,-100.00,NNE,20,11.0,21.0,75,-99.99,,,-99.99,,2013-01-30 18:43:00,
2013-01-30 13:52:00,65.0,57.0,-100.00,NNE,20,11.0,21.0,75,-99.99,,,-99.99,,2013-01-30 18:52:00,
2013-01-30 14:03:00,66.0,56.0,-100.00,NNE,20,11.0,23.0,70,-99.99,,,-99.99,,2013-01-30 19:03:00,
2013-01-30 14:13:00,67.0,56.0,-100.00,NNE,15,11.0,24.0,69,-99.99,,,-99.99,,2013-01-30 19:13:00,
2013-01-30 14:22:00,65.0,57.0,-100.00,NNE,15,11.0,23.0,75,-99.99,,,-99.99,,2013-01-30 19:22:00,
2013-01-30 14:33:00,65.0,58.0,-100.00,NNE,20,11.0,21.0,77,-99.99,,,-99.99,,2013-01-30 19:33:00,
2013-01-30 14:43:00,65.0,58.0,-100.00,NNE,25,11.0,21.0,78,-99.99,,,-99.99,,2013-01-30 19:43:00,
2013-01-30 14:52:00,65.0,58.0,-100.00,NNE,20,7.0,23.0,76,-99.99,,,-99.99,,2013-01-30 19:52:00,
2013-01-30 15:03:00,66.0,58.0,-100.00,NNE,25,6.0,23.0,75,-99.99,,,-99.99,,2013-01-30 20:03:00,
2013-01-30 15:12:00,66.0,57.0,-100.00,NNE,20,14.0,22.0,71,-99.99,,,-99.99,,2013-01-30 20:12:00,
2013-01-30 15:22:00,66.0,57.0,-100.00,NNE,20,14.0,22.0,71,-99.99,,,-99.99,,2013-01-30 20:22:00,
2013-01-30 15:33:00,67.0,56.0,-100.00,NNE,25,8.0,18.0,68,-99.99,,,-99.99,,2013-01-30 20:33:00,
2013-01-30 15:42:00,67.0,56.0,-100.00,NNE,25,8.0,18.0,68,-99.99,,,-99.99,,2013-01-30 20:42:00,
2013-01-30 15:52:00,68.0,55.0,-100.00,NNE,20,6.0,26.0,64,-99.99,,,-99.99,,2013-01-30 20:52:00,
2013-01-30 16:04:00,67.0,56.0,-100.00,NNE,15,7.0,22.0,67,-99.99,,,-99.99,,2013-01-30 21:04:00,
2013-01-30 16:12:00,66.0,58.0,-100.00,NNE,15,11.0,26.0,75,-99.99,,,-99.99,,2013-01-30 21:12:00,
2013-01-30 16:23:00,65.0,58.0,-100.00,NNE,15,8.0,15.0,78,-99.99,,,-99.99,,2013-01-30 21:23:00,
2013-01-30 16:32:00,65.0,59.0,-100.00,NNE,20,3.0,13.0,81,-99.99,,,-99.99,,2013-01-30 21:32:00,
2013-01-30 16:42:00,65.0,59.0,-100.00,NNE,25,11.0,19.0,82,-99.99,,,-99.99,,2013-01-30 21:42:00,
2013-01-30 16:52:00,65.0,59.0,-100.00,NNE,25,9.0,21.0,81,-99.99,,,-99.99,,2013-01-30 21:52:00,
2013-01-30 17:03:00,65.0,59.0,-100.00,NNE,30,10.0,21.0,80,-99.99,,,-99.99,,2013-01-30 22:03:00,
2013-01-30 17:12:00,65.0,59.0,-100.00,NNE,30,10.0,24.0,81,-99.99,,,-99.99,,2013-01-30 22:12:00,
2013-01-30 17:22:00,65.0,59.0,-100.00,NNE,25,14.0,24.0,81,-99.99,,,-99.99,,2013-01-30 22:22:00,
2013-01-30 17:32:00,65.0,60.0,-100.00,NNE,30,16.0,28.0,84,-99.99,,,-99.99,,2013-01-30 22:32:00,
2013-01-30 17:42:00,63.0,59.0,-100.00,NNE,30,21.0,32.0,88,-99.99,,,-99.99,,2013-01-30 22:42:00,
2013-01-30 17:52:00,61.0,58.0,-100.00,NNE,30,8.0,24.0,89,-99.99,,,-99.99,,2013-01-30 22:52:00,
2013-01-30 18:03:00,61.0,57.0,-100.00,NE,40,2.0,14.0,89,-99.99,,,-99.99,,2013-01-30 23:03:00,
2013-01-30 18:12:00,60.0,57.0,-100.00,NE,40,4.0,14.0,89,-99.99,,,-99.99,,2013-01-30 23:12:00,
2013-01-30 18:22:00,60.0,57.0,-100.00,NE,40,1.0,8.0,89,-99.99,,,-99.99,,2013-01-30 23:22:00,
2013-01-30 18:33:00,60.0,57.0,-100.00,NE,40,5.0,11.0,89,-99.99,,,-99.99,,2013-01-30 23:33:00,
2013-01-30 18:42:00,60.0,57.0,-100.00,NE,45,6.0,14.0,89,-99.99,,,-99.99,,2013-01-30 23:42:00,
2013-01-30 18:52:00,60.0,56.0,-100.00,NE,45,2.0,16.0,89,-99.99,,,-99.99,,2013-01-30 23:52:00,
2013-01-30 19:02:00,60.0,56.0,-100.00,NE,45,5.0,12.0,89,-99.99,,,-99.99,,2013-01-31 00:02:00,
2013-01-30 19:11:00,60.0,56.0,-100.00,NE,45,5.0,12.0,89,-99.99,,,-99.99,,2013-01-31 00:11:00,
2013-01-30 19:22:00,60.0,56.0,-100.00,NE,45,5.0,12.0,89,-99.99,,,-99.99,,2013-01-31 00:22:00,
2013-01-30 19:32:00,59.0,56.0,-100.00,NE,50,6.0,10.0,89,-99.99,,,-99.99,,2013-01-31 00:32:00,
2013-01-30 19:42:00,59.0,56.0,-100.00,NE,50,5.0,11.0,89,-99.99,,,-99.99,,2013-01-31 00:42:00,
2013-01-30 19:53:00,59.0,56.0,-100.00,NE,50,4.0,9.0,89,-99.99,,,-99.99,,2013-01-31 00:53:00,
2013-01-30 20:02:00,59.0,56.0,-100.00,NE,50,4.0,13.0,89,-99.99,,,-99.99,,2013-01-31 01:02:00,
2013-01-30 20:12:00,59.0,55.0,-100.00,NE,55,6.0,13.0,89,-99.99,,,-99.99,,2013-01-31 01:12:00,
2013-01-30 20:22:00,59.0,55.0,-100.00,NE,55,6.0,12.0,89,-99.99,,,-99.99,,2013-01-31 01:22:00,
2013-01-30 20:32:00,59.0,55.0,-100.00,NE,55,6.0,12.0,89,-99.99,,,-99.99,,2013-01-31 01:32:00,
2013-01-30 20:42:00,58.0,55.0,-100.00,NE,55,6.0,16.0,89,-99.99,,,-99.99,,2013-01-31 01:42:00,
2013-01-30 20:50:00,55.0,52.0,-100.00,NE,50,4.0,10.0,89,-99.99,,,-99.99,,2013-01-31 01:50:00,
2013-01-30 20:52:00,57.0,54.0,-100.00,NE,55,7.0,16.0,89,-99.99,,,-99.99,,2013-01-31 01:52:00,
2013-01-30 21:01:00,56.0,53.0,-100.00,NE,55,4.0,14.0,89,-99.99,,,-99.99,,2013-01-31 02:01:00,
2013-01-30 21:12:00,56.0,53.0,-100.00,NE,50,4.0,14.0,89,-99.99,,,-99.99,,2013-01-31 02:12:00,
2013-01-30 21:22:00,56.0,53.0,-100.00,NE,50,4.0,14.0,89,-99.99,,,-99.99,,2013-01-31 02:22:00,
2013-01-30 21:32:00,55.0,52.0,-100.00,NE,50,4.0,10.0,89,-99.99,,,-99.99,,2013-01-31 02:32:00,
2013-01-30 21:42:00,55.0,52.0,-100.00,NE,50,4.0,10.0,89,-99.99,,,-99.99,,2013-01-31 02:42:00,
2013-01-30 22:03:00,50.0,46.0,-100.00,NE,45,6.0,12.0,87,-99.99,,,-99.99,,2013-01-31 03:03:00,
2013-01-30 22:11:00,49.0,46.0,-100.00,NE,45,5.0,14.0,87,-99.99,,,-99.99,,2013-01-31 03:11:00,
2013-01-30 22:22:00,49.0,45.0,-100.00,NE,40,6.0,16.0,86,-99.99,,,-99.99,,2013-01-31 03:22:00,
2013-01-30 22:32:00,49.0,45.0,-100.00,NE,45,4.0,15.0,86,-99.99,,,-99.99,,2013-01-31 03:32:00,
2013-01-30 22:42:00,49.0,45.0,-100.00,NE,45,4.0,10.0,86,-99.99,,,-99.99,,2013-01-31 03:42:00,
2013-01-30 22:51:00,49.0,45.0,-100.00,NE,45,4.0,10.0,86,-99.99,,,-99.99,,2013-01-31 03:51:00,
2013-01-30 23:02:00,49.0,45.0,-100.00,NE,45,11.0,21.0,86,-99.99,,,-99.99,,2013-01-31 04:02:00,
2013-01-30 23:11:00,48.0,44.0,-100.00,NE,45,6.0,18.0,86,-99.99,,,-99.99,,2013-01-31 04:11:00,
2013-01-30 23:22:00,48.0,43.0,-100.00,NE,45,8.0,22.0,85,-99.99,,,-99.99,,2013-01-31 04:22:00,
2013-01-30 23:32:00,47.0,43.0,-100.00,NE,40,7.0,18.0,84,-99.99,,,-99.99,,2013-01-31 04:32:00,
2013-01-30 23:42:00,47.0,42.0,-100.00,East,85,4.0,17.0,83,-99.99,,,-99.99,,2013-01-31 04:42:00,
2013-01-30 23:51:00,46.0,41.0,-100.00,ENE,75,9.0,17.0,81,-99.99,,,-99.99,,2013-01-31 04:51:00,